University AP, Davis, CA, CA

3:34 AM PST on December 11, 2019 (GMT -0800)
University AP, Davis, CA

Weather History for KEDU - November, 2019

Change the Weather History Date:

Wednesday, November 20, 2019

  Actual Average (WUND) Record (WUND)
Temperature  
Mean Temperature 59 °F -  
Max Temperature 68 °F - - (-1)
Min Temperature 50 °F - - (-1)
Degree Days  
Heating Degree Days 6    
Growing Degree Days 9 (Base 50)    
Moisture  
Dew Point 32 °F    
Average Humidity 36    
Maximum Humidity 71    
Minimum Humidity 23    
Precipitation  
Precipitation 0.00 in - - ()
Sea Level Pressure  
Sea Level Pressure 29.55 in    
Wind  
Wind Speed 16 mph ()    
Max Wind Speed 26 mph    
Max Gust Speed 34 mph    
Visibility 9.0 miles    
Events      
Averages and records for this station are not official NWS values.
T = Trace of Precipitation, MM = Missing Value Source: Averaged Metar Reports

Daily Weather History Graph

Daily Weather History Graph

Search for Another Location

Airport or City:

Astronomy

Nov. 20, 2019 Rise Set
Actual Time 6:54 AM PST 4:50 PM PST
Civil Twilight 6:25 AM PST 5:19 PM PST
Nautical Twilight 5:53 AM PST 5:51 PM PST
Astronomical Twilight 5:21 AM PST 6:23 PM PST
Moon No Moon Rise 1:44 PM PST (11/20)
Length of Visible Light 10h 53m
Length of Day
9h 56m
Last Quarter, 39% of the Moon is Illuminated
Nov 20
Last Quarter
Nov 26
New
Dec 3
First Quarter
Dec 11
Full
Dec 18
Last Quarter

Hourly Weather History & Observations

Time (PST) Temp. Dew Point Humidity Pressure Visibility Wind Dir Wind Speed Gust Speed Precip Events Conditions
12:15 AM 53.6 °F 42.8 °F 67% 29.55 in 10.0 mi NNW 11.5 mph 16.1 mph N/A   Clear
12:35 AM 55.4 °F 39.2 °F 54% 29.55 in 10.0 mi North 9.2 mph - N/A   Clear
12:55 AM 57.2 °F 37.4 °F 48% 29.55 in 10.0 mi North 12.7 mph 17.3 mph N/A   Clear
1:15 AM 57.2 °F 37.4 °F 48% 29.54 in 10.0 mi North 12.7 mph 23.0 mph N/A   Clear
1:35 AM 57.2 °F 37.4 °F 48% 29.54 in 10.0 mi North 15.0 mph 19.6 mph N/A   Clear
1:55 AM 57.2 °F 37.4 °F 48% 29.53 in 10.0 mi North 16.1 mph 25.3 mph N/A   Clear
2:15 AM 57.2 °F 37.4 °F 48% 29.53 in 7.0 mi NNW 17.3 mph 27.6 mph N/A   Clear
2:35 AM 57.2 °F 37.4 °F 48% 29.54 in 8.0 mi North 18.4 mph 26.5 mph N/A   Clear
2:55 AM 59.0 °F 35.6 °F 42% 29.53 in 9.0 mi North 19.6 mph 28.8 mph N/A   Clear
3:15 AM 59.0 °F 35.6 °F 42% 29.53 in 8.0 mi North 19.6 mph 29.9 mph N/A   Clear
3:35 AM 59.0 °F 35.6 °F 42% 29.53 in 8.0 mi North 16.1 mph 31.1 mph N/A   Clear
3:55 AM 59.0 °F 35.6 °F 42% 29.53 in 8.0 mi North 21.9 mph 31.1 mph N/A   Clear
4:15 AM 59.0 °F 35.6 °F 42% 29.53 in 8.0 mi North 18.4 mph 28.8 mph N/A   Clear
4:35 AM 59.0 °F 35.6 °F 42% 29.53 in 9.0 mi NNW 19.6 mph 31.1 mph N/A   Clear
4:55 AM 59.0 °F 35.6 °F 42% 29.53 in 10.0 mi North 24.2 mph 31.1 mph N/A   Clear
5:15 AM 59.0 °F 35.6 °F 42% 29.53 in 9.0 mi NNW 19.6 mph 34.5 mph N/A   Clear
5:35 AM 59.0 °F 33.8 °F 39% 29.54 in 9.0 mi North 23.0 mph 32.2 mph N/A   Clear
5:55 AM 59.0 °F 33.8 °F 39% 29.54 in 10.0 mi NNW 17.3 mph 27.6 mph N/A   Clear
6:15 AM 59.0 °F 33.8 °F 39% 29.54 in 9.0 mi NNW 23.0 mph 31.1 mph N/A   Clear
6:55 AM 57.2 °F 32.0 °F 38% 29.55 in 7.0 mi NNW 21.9 mph 33.4 mph N/A   Clear
7:15 AM 57.2 °F 32.0 °F 38% 29.55 in 7.0 mi NNW 24.2 mph 34.5 mph N/A   Clear
7:35 AM 57.2 °F 32.0 °F 38% 29.56 in 7.0 mi NNW 23.0 mph 33.4 mph N/A   Clear
7:55 AM 57.2 °F 32.0 °F 38% 29.56 in 8.0 mi NNW 18.4 mph 32.2 mph N/A   Clear
8:15 AM 57.2 °F 32.0 °F 38% 29.56 in 10.0 mi NNW 23.0 mph 34.5 mph N/A   Clear
8:35 AM 59.0 °F 32.0 °F 36% 29.56 in 9.0 mi NNW 18.4 mph 32.2 mph N/A   Clear
8:55 AM 59.0 °F 32.0 °F 36% 29.56 in 9.0 mi North 25.3 mph 33.4 mph N/A   Clear
9:15 AM 59.0 °F 32.0 °F 36% 29.56 in 8.0 mi North 21.9 mph 31.1 mph N/A   Clear
9:35 AM 60.8 °F 32.0 °F 34% 29.55 in 5.0 mi North 24.2 mph 33.4 mph N/A   Clear
9:55 AM 62.6 °F 32.0 °F 32% 29.55 in 5.0 mi North 23.0 mph 34.5 mph N/A   Clear
10:15 AM 64.4 °F 32.0 °F 30% 29.55 in 6.0 mi North 19.6 mph 33.4 mph N/A   Clear
10:35 AM 64.4 °F 32.0 °F 30% 29.54 in 5.0 mi North 20.7 mph 34.5 mph N/A   Clear
10:55 AM 64.4 °F 32.0 °F 30% 29.53 in 7.0 mi North 24.2 mph 33.4 mph N/A   Clear
11:15 AM 66.2 °F 32.0 °F 28% 29.53 in 7.0 mi NNW 21.9 mph 31.1 mph N/A   Clear
11:35 AM 66.2 °F 30.2 °F 26% 29.53 in 7.0 mi NNW 24.2 mph 33.4 mph N/A   Clear
11:55 AM 68.0 °F 30.2 °F 24% 29.52 in 9.0 mi North 25.3 mph 34.5 mph N/A   Clear
12:15 PM 68.0 °F 30.2 °F 24% 29.52 in 9.0 mi North 19.6 mph 29.9 mph N/A   Clear
12:35 PM 68.0 °F 28.4 °F 23% 29.51 in 10.0 mi North 20.7 mph 32.2 mph N/A   Clear
12:55 PM 68.0 °F 28.4 °F 23% 29.51 in 10.0 mi North 16.1 mph 27.6 mph N/A   Clear
1:15 PM 68.0 °F 28.4 °F 23% 29.51 in 10.0 mi North 17.3 mph 28.8 mph N/A   Clear
1:35 PM 68.0 °F 28.4 °F 23% 29.50 in 8.0 mi North 19.6 mph 32.2 mph N/A   Clear
1:55 PM 68.0 °F 28.4 °F 23% 29.50 in 8.0 mi North 26.5 mph 34.5 mph N/A   Clear
2:15 PM 68.0 °F 28.4 °F 23% 29.50 in 9.0 mi North 23.0 mph 31.1 mph N/A   Clear
2:35 PM 68.0 °F 28.4 °F 23% 29.50 in 10.0 mi North 16.1 mph 27.6 mph N/A   Clear
2:55 PM 68.0 °F 28.4 °F 23% 29.50 in 9.0 mi North 21.9 mph 31.1 mph N/A   Clear
3:15 PM 68.0 °F 28.4 °F 23% 29.50 in 10.0 mi NNW 18.4 mph 26.5 mph N/A   Clear
3:35 PM 68.0 °F 28.4 °F 23% 29.50 in 10.0 mi North 13.8 mph 23.0 mph N/A   Clear
3:55 PM 66.2 °F 30.2 °F 26% 29.50 in 10.0 mi North 11.5 mph 18.4 mph N/A   Clear
4:15 PM 66.2 °F 30.2 °F 26% 29.50 in 10.0 mi NNW 13.8 mph 20.7 mph N/A   Clear
4:35 PM 66.2 °F 30.2 °F 26% 29.51 in 10.0 mi NNW 9.2 mph - N/A   Clear
4:55 PM 64.4 °F 28.4 °F 26% 29.51 in 10.0 mi NNW 13.8 mph 18.4 mph N/A   Clear
5:15 PM 64.4 °F 28.4 °F 26% 29.51 in 10.0 mi NNW 13.8 mph 21.9 mph N/A   Clear
5:35 PM 62.6 °F 28.4 °F 27% 29.52 in 10.0 mi NNW 12.7 mph - N/A   Clear
5:55 PM 62.6 °F 28.4 °F 27% 29.53 in 10.0 mi NNW 10.4 mph - N/A   Clear
6:15 PM 62.6 °F 28.4 °F 27% 29.54 in 10.0 mi NNW 15.0 mph - N/A   Clear
6:35 PM 62.6 °F 26.6 °F 26% 29.54 in 10.0 mi NNW 13.8 mph 19.6 mph N/A   Clear
6:55 PM 60.8 °F 28.4 °F 29% 29.55 in 10.0 mi NNW 15.0 mph 20.7 mph N/A   Clear
7:15 PM 60.8 °F 28.4 °F 29% 29.56 in 10.0 mi North 12.7 mph 18.4 mph N/A   Clear
7:35 PM 59.0 °F 28.4 °F 31% 29.57 in 10.0 mi NNW 13.8 mph - N/A   Clear
7:55 PM 59.0 °F 28.4 °F 31% 29.58 in 10.0 mi North 12.7 mph 18.4 mph N/A   Clear
8:15 PM 59.0 °F 28.4 °F 31% 29.59 in 10.0 mi NNW 13.8 mph 18.4 mph N/A   Clear
8:35 PM 59.0 °F 28.4 °F 31% 29.60 in 10.0 mi North 11.5 mph 16.1 mph N/A   Clear
8:55 PM 59.0 °F 28.4 °F 31% 29.61 in 10.0 mi North 12.7 mph 17.3 mph N/A   Clear
9:35 PM 57.2 °F 30.2 °F 36% 29.64 in 10.0 mi North 10.4 mph 16.1 mph N/A   Clear
9:55 PM 55.4 °F 30.2 °F 38% 29.66 in 10.0 mi NNE 10.4 mph - N/A   Clear
10:15 PM 53.6 °F 33.8 °F 47% 29.67 in 10.0 mi NNE 6.9 mph - N/A   Clear
10:35 PM 53.6 °F 35.6 °F 51% 29.69 in 10.0 mi NE 5.8 mph - N/A   Clear
11:15 PM 51.8 °F 39.2 °F 62% 29.71 in 10.0 mi East 4.6 mph - N/A   Clear
11:35 PM 50.0 °F 41.0 °F 71% 29.71 in 10.0 mi ESE 3.5 mph - N/A   Clear
11:55 PM 51.8 °F 41.0 °F 67% 29.72 in 10.0 mi Calm Calm - N/A   Clear